Find Starlink 32813

NORAD ID: 62869 Int'l Des: 2025-022 Owner: SPXS Country: US Constellation: starlink operational
LEOCIRCULAR

实时位置

正在加载3D地球...

关于 Starlink 32813

正在加载描述...

即将过境

Passes for default location (London). Set your location on the main map for personalized predictions.

高度历史

Loading altitude history...

两行轨道根数

1 62869U 25022R 26123.72656683 .00020846 00000-0 71391-3 0 9993
2 62869 53.1588 234.1783 0000886 89.4210 270.6892 15.30203037 70327
Epoch: May 3, 2026 • Age: 19 hours

当前状态

高度 476.9 km
速度 7.63 km/s
星下点 33.00°N, 149.47°W
发射日期 Feb 2, 2025
运行时间 1.2 years
类型 internet

技术详情

分类 Payload
质量 730.00 kg
干质量 700.00 kg
总质量 730.00 kg
长度 0.30 m
直径 4.10 m
跨度 29.00 m
形状 Box + pan
制造商 SPXS
平台类型 Starlink V2M
阶段状态 In Orbit
所有者/国家 SPXS/US

Most Searched